| time (UTC) | temp C | wind direction | speed KPH | gust KPH | rain 1hr cm | rain 24hr cm | rain mn cm | humidity % | barometer mb |
| 20260507070216 | 2 | 0.0 | 1.6 | 0.00 | 0.00 | 0.00 | 69 | 1014.3 | |
| 20260507065217 | 2 | 203 | 1.6 | 3.2 | 0.00 | 0.00 | 0.00 | 68 | 1014.3 |
| 20260507064216 | 2 | 0.0 | 0.0 | 0.00 | 0.00 | 0.00 | 68 | 1014.3 | |
| 20260507063237 | 2 | 203 | 1.6 | 3.2 | 0.00 | 0.00 | 0.00 | 67 | 1014.4 |
| 20260507062237 | 2 | 203 | 1.6 | 1.6 | 0.00 | 0.00 | 0.00 | 66 | 1014.4 |
| 20260507061217 | 2 | 203 | 3.2 | 3.2 | 0.00 | 0.00 | 0.00 | 66 | 1014.5 |
| 20260507060216 | 2 | 203 | 1.6 | 3.2 | 0.00 | 0.00 | 0.00 | 64 | 1014.6 |
| 20260507055216 | 2 | 203 | 1.6 | 1.6 | 0.00 | 0.00 | 0.00 | 63 | 1014.6 |
| 20260507054217 | 3 | 0.0 | 0.0 | 0.00 | 0.00 | 0.00 | 62 | 1014.4 | |
| 20260507053237 | 3 | 0.0 | 0.0 | 0.00 | 0.00 | 0.00 | 62 | 1014.5 | |
| 20260507052217 | 3 | 293 | 1.6 | 3.2 | 0.00 | 0.00 | 0.00 | 60 | 1014.5 |
| 20260507051216 | 3 | 293 | 1.6 | 1.6 | 0.00 | 0.00 | 0.00 | 59 | 1014.5 |
| 20260507050217 | 4 | 0.0 | 1.6 | 0.00 | 0.00 | 0.00 | 59 | 1014.5 | |
| 20260507045217 | 4 | 0.0 | 0.0 | 0.00 | 0.00 | 0.00 | 58 | 1014.5 | |
| 20260507044217 | 5 | 293 | 1.6 | 1.6 | 0.00 | 0.00 | 0.00 | 56 | 1014.5 |
| 20260507043217 | 5 | 0.0 | 1.6 | 0.00 | 0.00 | 0.00 | 56 | 1014.6 | |
| 20260507042217 | 5 | 0.0 | 1.6 | 0.00 | 0.00 | 0.00 | 55 | 1014.5 | |
| 20260507041217 | 5 | 270 | 3.2 | 4.8 | 0.00 | 0.00 | 0.00 | 54 | 1014.5 |
| 20260507040258 | 6 | 315 | 1.6 | 1.6 | 0.00 | 0.00 | 0.00 | 54 | 1014.5 |
| 20260507035217 | 6 | 293 | 3.2 | 4.8 | 0.00 | 0.00 | 0.00 | 53 | 1014.5 |
| 20260507034237 | 6 | 293 | 1.6 | 3.2 | 0.00 | 0.00 | 0.00 | 52 | 1014.5 |
| 20260507033217 | 6 | 315 | 1.6 | 3.2 | 0.00 | 0.00 | 0.00 | 51 | 1014.6 |
| 20260507032217 | 6 | 315 | 3.2 | 4.8 | 0.00 | 0.00 | 0.00 | 50 | 1014.7 |
| 20260507031217 | 7 | 293 | 3.2 | 6.4 | 0.00 | 0.00 | 0.00 | 49 | 1014.6 |
| 20260507030217 | 7 | 293 | 6.4 | 11.3 | 0.00 | 0.00 | 0.00 | 48 | 1014.5 |
| 20260507025216 | 7 | 315 | 4.8 | 6.4 | 0.00 | 0.00 | 0.00 | 48 | 1014.4 |
| 20260507024217 | 7 | 270 | 9.7 | 12.9 | 0.00 | 0.00 | 0.00 | 47 | 1014.5 |
| 20260507023217 | 7 | 293 | 6.4 | 12.9 | 0.00 | 0.00 | 0.00 | 47 | 1014.3 |
| 20260507022237 | 7 | 293 | 6.4 | 11.3 | 0.00 | 0.00 | 0.00 | 47 | 1014.2 |
| 20260507021237 | 7 | 293 | 8.0 | 11.3 | 0.00 | 0.00 | 0.00 | 46 | 1014.0 |
| 20260507020217 | 7 | 293 | 11.3 | 17.7 | 0.00 | 0.00 | 0.00 | 46 | 1013.8 |
| 20260507015217 | 8 | 293 | 8.0 | 12.9 | 0.00 | 0.00 | 0.00 | 45 | 1013.8 |
| 20260507014217 | 8 | 293 | 6.4 | 8.0 | 0.00 | 0.00 | 0.00 | 44 | 1013.7 |
| 20260507013237 | 8 | 315 | 8.0 | 12.9 | 0.00 | 0.00 | 0.00 | 44 | 1013.7 |
| 20260507012237 | 8 | 270 | 8.0 | 14.5 | 0.00 | 0.00 | 0.00 | 42 | 1013.7 |
| 20260507011217 | 8 | 293 | 6.4 | 11.3 | 0.00 | 0.00 | 0.00 | 42 | 1013.5 |
| 20260507010217 | 8 | 293 | 6.4 | 11.3 | 0.00 | 0.00 | 0.00 | 41 | 1013.4 |
| 20260507005216 | 9 | 270 | 12.9 | 17.7 | 0.00 | 0.00 | 0.00 | 41 | 1013.4 |
| 20260507004217 | 10 | 270 | 11.3 | 14.5 | 0.00 | 0.00 | 0.00 | 40 | 1013.3 |
| 20260507003216 | 10 | 270 | 16.1 | 24.1 | 0.00 | 0.00 | 0.00 | 40 | 1013.2 |
| 20260507002217 | 10 | 293 | 14.5 | 19.3 | 0.00 | 0.00 | 0.00 | 40 | 1013.2 |
| 20260507001217 | 10 | 270 | 14.5 | 22.5 | 0.00 | 0.00 | 0.00 | 39 | 1013.1 |
| 20260507000216 | 10 | 270 | 11.3 | 19.3 | 0.00 | 0.00 | 0.00 | 39 | 1012.9 |
| 20260506235217 | 10 | 270 | 24.1 | 32.2 | 0.00 | 0.00 | 0.00 | 40 | 1012.8 |
| 20260506234217 | 11 | 293 | 20.9 | 29.0 | 0.00 | 0.00 | 0.00 | 39 | 1012.8 |
| 20260506233216 | 11 | 270 | 16.1 | 25.7 | 0.00 | 0.00 | 0.00 | 39 | 1012.6 |
| 20260506232237 | 11 | 293 | 19.3 | 33.8 | 0.00 | 0.00 | 0.00 | 38 | 1012.5 |
| 20260506231217 | 11 | 270 | 16.1 | 27.4 | 0.00 | 0.00 | 0.00 | 38 | 1012.5 |
| 20260506230257 | 11 | 270 | 20.9 | 30.6 | 0.00 | 0.00 | 0.00 | 38 | 1012.5 |
| 20260506225216 | 12 | 270 | 22.5 | 30.6 | 0.00 | 0.00 | 0.00 | 37 | 1012.2 |
| 20260506224216 | 12 | 270 | 24.1 | 30.6 | 0.00 | 0.00 | 0.00 | 38 | 1012.3 |
| 20260506223237 | 12 | 248 | 14.5 | 19.3 | 0.00 | 0.00 | 0.00 | 39 | 1012.2 |
| 20260506222216 | 12 | 270 | 16.1 | 24.1 | 0.00 | 0.00 | 0.00 | 38 | 1012.1 |
| 20260506221216 | 12 | 248 | 14.5 | 24.1 | 0.00 | 0.00 | 0.00 | 38 | 1012.2 |
| 20260506220217 | 12 | 270 | 12.9 | 16.1 | 0.00 | 0.00 | 0.00 | 37 | 1012.1 |
| 20260506215216 | 12 | 270 | 19.3 | 29.0 | 0.00 | 0.00 | 0.00 | 38 | 1011.9 |
| 20260506214217 | 12 | 248 | 19.3 | 29.0 | 0.00 | 0.00 | 0.00 | 38 | 1011.9 |
| 20260506213216 | 13 | 248 | 25.7 | 38.6 | 0.00 | 0.00 | 0.00 | 37 | 1012.0 |
| 20260506212217 | 13 | 293 | 20.9 | 25.7 | 0.00 | 0.00 | 0.00 | 37 | 1011.9 |
| 20260506211216 | 13 | 248 | 22.5 | 30.6 | 0.00 | 0.00 | 0.00 | 36 | 1011.8 |
| 20260506210216 | 13 | 0 | 19.3 | 29.0 | 0.00 | 0.00 | 0.00 | 35 | 1011.8 |
| 20260506205216 | 13 | 248 | 12.9 | 25.7 | 0.00 | 0.00 | 0.00 | 38 | 1011.8 |
| 20260506204237 | 13 | 270 | 14.5 | 20.9 | 0.00 | 0.00 | 0.00 | 36 | 1011.9 |
| 20260506203216 | 13 | 248 | 12.9 | 25.7 | 0.00 | 0.00 | 0.00 | 37 | 1011.9 |
| 20260506202216 | 13 | 248 | 16.1 | 27.4 | 0.00 | 0.00 | 0.00 | 34 | 1012.0 |
| 20260506201236 | 15 | 270 | 20.9 | 29.0 | 0.00 | 0.00 | 0.00 | 32 | 1012.1 |
| 20260506200216 | 13 | 248 | 19.3 | 25.7 | 0.00 | 0.00 | 0.00 | 33 | 1012.3 |
| 20260506195236 | 13 | 203 | 17.7 | 25.7 | 0.00 | 0.00 | 0.00 | 34 | 1012.3 |
| 20260506194256 | 13 | 248 | 20.9 | 32.2 | 0.00 | 0.00 | 0.00 | 32 | 1012.4 |
| 20260506193216 | 13 | 248 | 14.5 | 20.9 | 0.00 | 0.00 | 0.00 | 32 | 1012.5 |
| 20260506192216 | 13 | 270 | 16.1 | 25.7 | 0.00 | 0.00 | 0.00 | 33 | 1012.6 |
| 20260506191216 | 13 | 225 | 17.7 | 25.7 | 0.00 | 0.00 | 0.00 | 34 | 1012.6 |
| 20260506190216 | 13 | 270 | 19.3 | 30.6 | 0.00 | 0.00 | 0.00 | 36 | 1012.6 |
| 20260506185216 | 13 | 248 | 19.3 | 29.0 | 0.00 | 0.00 | 0.00 | 38 | 1012.7 |
| 20260506184216 | 12 | 248 | 19.3 | 25.7 | 0.00 | 0.00 | 0.00 | 37 | 1012.8 |
| 20260506183216 | 12 | 270 | 12.9 | 19.3 | 0.00 | 0.00 | 0.00 | 37 | 1012.7 |
| 20260506182216 | 12 | 248 | 16.1 | 22.5 | 0.00 | 0.00 | 0.00 | 36 | 1012.7 |
| 20260506181216 | 12 | 270 | 9.7 | 20.9 | 0.00 | 0.00 | 0.00 | 36 | 1012.6 |
| 20260506180216 | 13 | 248 | 12.9 | 22.5 | 0.00 | 0.00 | 0.00 | 36 | 1012.7 |
| 20260506175216 | 12 | 225 | 12.9 | 20.9 | 0.00 | 0.00 | 0.00 | 38 | 1012.6 |
| 20260506174216 | 12 | 225 | 19.3 | 30.6 | 0.00 | 0.00 | 0.00 | 37 | 1012.9 |
| 20260506173216 | 12 | 248 | 19.3 | 24.1 | 0.00 | 0.00 | 0.00 | 38 | 1012.8 |
| 20260506172236 | 12 | 270 | 14.5 | 22.5 | 0.00 | 0.00 | 0.00 | 36 | 1012.8 |
| 20260506171216 | 12 | 203 | 14.5 | 19.3 | 0.00 | 0.00 | 0.00 | 38 | 1013.1 |
| 20260506170236 | 12 | 270 | 19.3 | 32.2 | 0.00 | 0.00 | 0.00 | 37 | 1013.1 |
| 20260506165216 | 12 | 293 | 14.5 | 24.1 | 0.00 | 0.00 | 0.00 | 38 | 1013.2 |
| 20260506164236 | 12 | 270 | 16.1 | 29.0 | 0.00 | 0.00 | 0.00 | 39 | 1013.2 |
| 20260506163216 | 12 | 248 | 12.9 | 17.7 | 0.00 | 0.00 | 0.00 | 36 | 1013.1 |
| 20260506162215 | 12 | 270 | 9.7 | 16.1 | 0.00 | 0.00 | 0.00 | 36 | 1013.2 |
| 20260506161216 | 12 | 225 | 16.1 | 22.5 | 0.00 | 0.00 | 0.00 | 37 | 1013.2 |
| 20260506160215 | 12 | 248 | 19.3 | 24.1 | 0.00 | 0.00 | 0.00 | 39 | 1013.1 |
| 20260506155215 | 11 | 225 | 12.9 | 17.7 | 0.00 | 0.00 | 0.00 | 40 | 1013.2 |
| 20260506154218 | 11 | 270 | 17.7 | 22.5 | 0.00 | 0.00 | 0.00 | 39 | 1013.1 |
| 20260506153218 | 12 | 270 | 12.9 | 17.7 | 0.00 | 0.00 | 0.00 | 37 | 1013.0 |
| 20260506152218 | 12 | 248 | 8.0 | 12.9 | 0.00 | 0.00 | 0.00 | 39 | 1013.2 |
| 20260506151217 | 12 | 270 | 14.5 | 19.3 | 0.00 | 0.00 | 0.00 | 39 | 1013.2 |
| 20260506150238 | 12 | 248 | 8.0 | 16.1 | 0.00 | 0.00 | 0.00 | 39 | 1013.2 |
| 20260506145218 | 11 | 225 | 8.0 | 9.7 | 0.00 | 0.00 | 0.00 | 42 | 1013.2 |
| 20260506144217 | 11 | 248 | 11.3 | 16.1 | 0.00 | 0.00 | 0.00 | 40 | 1013.3 |
| 20260506143218 | 11 | 270 | 4.8 | 11.3 | 0.00 | 0.00 | 0.00 | 39 | 1013.3 |
| 20260506142218 | 11 | 293 | 4.8 | 9.7 | 0.00 | 0.00 | 0.00 | 39 | 1013.2 |
| 20260506141218 | 11 | 203 | 8.0 | 12.9 | 0.00 | 0.00 | 0.00 | 43 | 1013.2 |
| 20260506140217 | 11 | 225 | 4.8 | 6.4 | 0.00 | 0.00 | 0.00 | 46 | 1013.2 |
| 20260506135217 | 10 | 203 | 4.8 | 6.4 | 0.00 | 0.00 | 0.00 | 44 | 1013.0 |
| 20260506134218 | 10 | 203 | 8.0 | 9.7 | 0.00 | 0.00 | 0.00 | 48 | 1012.8 |
| 20260506133217 | 10 | 203 | 4.8 | 6.4 | 0.00 | 0.00 | 0.00 | 53 | 1012.6 |
| 20260506132217 | 10 | 203 | 3.2 | 4.8 | 0.00 | 0.00 | 0.00 | 54 | 1012.5 |
| 20260506131217 | 9 | 203 | 3.2 | 4.8 | 0.00 | 0.00 | 0.00 | 60 | 1012.4 |
| 20260506130218 | 8 | 158 | 3.2 | 4.8 | 0.00 | 0.00 | 0.00 | 64 | 1012.4 |
| 20260506125217 | 7 | 203 | 1.6 | 3.2 | 0.00 | 0.00 | 0.00 | 70 | 1012.3 |
| 20260506124217 | 6 | 0.0 | 1.6 | 0.00 | 0.00 | 0.00 | 76 | 1012.2 | |
| 20260506123217 | 6 | 293 | 1.6 | 3.2 | 0.00 | 0.00 | 0.00 | 77 | 1012.0 |
| 20260506122217 | 5 | 338 | 1.6 | 3.2 | 0.00 | 0.00 | 0.00 | 79 | 1011.8 |
| 20260506121217 | 5 | 0.0 | 0.0 | 0.00 | 0.00 | 0.00 | 80 | 1011.5 | |
| 20260506120217 | 4 | 0.0 | 1.6 | 0.00 | 0.00 | 0.00 | 80 | 1011.6 | |
| 20260506115217 | 4 | 0.0 | 1.6 | 0.00 | 0.00 | 0.00 | 80 | 1011.5 | |
| 20260506114217 | 3 | 0.0 | 1.6 | 0.00 | 0.00 | 0.00 | 81 | 1011.4 | |
| 20260506113217 | 3 | 0.0 | 0.0 | 0.00 | 0.00 | 0.00 | 80 | 1011.3 | |
| 20260506112318 | 3 | 0.0 | 1.6 | 0.00 | 0.00 | 0.00 | 79 | 1011.2 | |
| 20260506111217 | 3 | 0.0 | 0.0 | 0.00 | 0.00 | 0.00 | 79 | 1011.2 | |
| 20260506110217 | 3 | 0.0 | 1.6 | 0.00 | 0.00 | 0.00 | 79 | 1011.3 | |
| 20260506105237 | 3 | 0.0 | 1.6 | 0.00 | 0.00 | 0.00 | 79 | 1011.1 | |
| 20260506104217 | 3 | 45 | 1.6 | 3.2 | 0.00 | 0.00 | 0.00 | 78 | 1010.9 |
| 20260506103217 | 3 | 45 | 1.6 | 1.6 | 0.00 | 0.00 | 0.00 | 77 | 1010.7 |
| 20260506102217 | 3 | 0.0 | 1.6 | 0.00 | 0.00 | 0.00 | 75 | 1010.5 | |
| 20260506101217 | 4 | 0.0 | 0.0 | 0.00 | 0.00 | 0.00 | 74 | 1010.4 | |
| 20260506100217 | 4 | 0.0 | 0.0 | 0.00 | 0.00 | 0.00 | 75 | 1010.4 | |
| 20260506095258 | 4 | 0.0 | 0.0 | 0.00 | 0.00 | 0.00 | 74 | 1010.5 | |
| 20260506094217 | 4 | 0.0 | 0.0 | 0.00 | 0.00 | 0.00 | 73 | 1010.4 | |
| 20260506093217 | 4 | 0.0 | 0.0 | 0.00 | 0.00 | 0.00 | 72 | 1010.4 | |
| 20260506092237 | 4 | 0.0 | 1.6 | 0.00 | 0.00 | 0.00 | 71 | 1010.4 | |
| 20260506091217 | 4 | 45 | 1.6 | 1.6 | 0.00 | 0.00 | 0.00 | 71 | 1010.3 |
| 20260506090257 | 4 | 0.0 | 0.0 | 0.00 | 0.00 | 0.00 | 70 | 1010.5 | |
| 20260506085217 | 4 | 0.0 | 0.0 | 0.00 | 0.00 | 0.00 | 68 | 1010.5 | |
| 20260506084217 | 4 | 0.0 | 1.6 | 0.00 | 0.00 | 0.00 | 66 | 1010.3 | |
| 20260506083218 | 5 | 0.0 | 0.0 | 0.00 | 0.00 | 0.00 | 65 | 1010.1 | |
| 20260506082217 | 5 | 0.0 | 0.0 | 0.00 | 0.00 | 0.00 | 65 | 1010.2 | |
| 20260506081237 | 5 | 0.0 | 0.0 | 0.00 | 0.00 | 0.00 | 64 | 1010.1 | |
| 20260506080217 | 6 | 0.0 | 0.0 | 0.00 | 0.00 | 0.00 | 60 | 1010.2 | |
| 20260506073216 | 6 | 23 | 1.6 | 4.8 | 0.00 | 0.00 | 0.00 | 55 | 1010.2 |
| 20260506072217 | 7 | 68 | 1.6 | 3.2 | 0.00 | 0.00 | 0.00 | 54 | 1009.9 |
| 20260506071217 | 7 | 45 | 1.6 | 4.8 | 0.00 | 0.00 | 0.00 | 53 | 1009.8 |